Weather History for KMCO - May, 2012

Change the Weather History Date:

Tuesday, May 29, 2012

  Actual Average Record
Temperature  
Mean Temperature 78 °F 80 °F  
Max Temperature 84 °F 90 °F 100 °F (1908)
Min Temperature 71 °F 70 °F 55 °F (1934)
Degree Days  
Heating Degree Days 0 0  
Month to date heating degree days 0 0  
Since 1 July heating degree days 313 570  
Cooling Degree Days 13 15  
Month to date cooling degree days 391 351  
Year to date cooling degree days 1004 772  
Growing Degree Days 28 (Base 50)    
Moisture  
Dew Point 72 °F    
Average Humidity 80    
Maximum Humidity 100    
Minimum Humidity 59    
Precipitation  
Precipitation 0.10 in 0.17 in 4.44 in (1932)
Month to date precipitation 3.56 3.08  
Year to date precipitation 9.31 14.26  
Sea Level Pressure  
Sea Level Pressure 29.92 in    
Wind  
Wind Speed 9 mph (SSW)    
Max Wind Speed 26 mph    
Max Gust Speed 33 mph    
Visibility 9 miles    
Events Rain    
T = Trace of Precipitation, MM = Missing Value Source: NWS Daily Summary

Daily Weather History Graph

Daily Weather History Graph

Search for Another Location

Airport or City:

Trip Planner

Search our weather history database for the weather conditions in past years. The results will help you decide how hot, cold, wet, or windy it might be!

Date:

Astronomy

May. 29, 2012 Rise Set
Actual Time 6:28 AM EDT 8:16 PM EDT
Civil Twilight 6:02 AM EDT 8:43 PM EDT
Nautical Twilight 5:30 AM EDT 9:15 PM EDT
Astronomical Twilight 4:57 AM EDT 9:48 PM EDT
Moon 2:14 PM EDT (5/29) 1:50 AM EDT (5/29)
Length of Visible Light 14h 41m
Length of Day
13h 48m
First Quarter, 59% of the Moon is Illuminated
May 29
First Quarter
Jun 4
Full
Jun 11
Last Quarter
Jun 19
New
Jun 26
First Quarter

Hourly Weather History & Observations

Time (EDT) Temp. Heat Index Dew Point Humidity Pressure Visibility Wind Dir Wind Speed Gust Speed Precip Events Conditions
12:53 AM 72.0 °F - 70.0 °F 93% 29.94 in 10.0 mi South 9.2 mph - N/A   Partly Cloudy
1:53 AM 72.0 °F - 70.0 °F 93% 29.94 in 10.0 mi South 6.9 mph - N/A   Mostly Cloudy
2:53 AM 72.0 °F - 71.1 °F 97% 29.92 in 10.0 mi South 10.4 mph - N/A   Mostly Cloudy
3:53 AM 72.0 °F - 71.1 °F 97% 29.91 in 10.0 mi South 6.9 mph - N/A   Mostly Cloudy
4:53 AM 72.0 °F - 71.1 °F 97% 29.90 in 10.0 mi South 8.1 mph - N/A   Mostly Cloudy
5:53 AM 72.0 °F - 72.0 °F 100% 29.91 in 10.0 mi South 6.9 mph - N/A   Mostly Cloudy
6:53 AM 73.0 °F - 72.0 °F 96% 29.93 in 9.0 mi South 9.2 mph - N/A   Mostly Cloudy
7:34 AM 73.4 °F - 73.4 °F 100% 29.93 in 9.0 mi South 8.1 mph - N/A   Mostly Cloudy
7:53 AM 73.9 °F - 73.0 °F 97% 29.93 in 7.0 mi South 10.4 mph - N/A   Overcast
8:42 AM 73.4 °F - 73.4 °F 100% 29.96 in 8.0 mi SSW 6.9 mph - N/A   Overcast
8:53 AM 73.9 °F - 73.0 °F 97% 29.96 in 8.0 mi South 6.9 mph - N/A   Overcast
9:44 AM 73.4 °F - 73.4 °F 100% 29.96 in 7.0 mi SSW 6.9 mph - N/A   Overcast
9:53 AM 75.0 °F - 73.0 °F 94% 29.96 in 6.0 mi SSW 6.9 mph - N/A   Overcast
10:53 AM 75.0 °F - 73.0 °F 94% 29.96 in 6.0 mi SSW 8.1 mph - 0.00 in Rain Light Rain
11:53 AM 75.9 °F - 75.0 °F 97% 29.96 in 9.0 mi South 4.6 mph - 0.06 in Rain Light Rain
12:53 PM 81.0 °F 86.2 °F 73.9 °F 79% 29.94 in 10.0 mi SSW 10.4 mph - 0.00 in   Mostly Cloudy
1:53 PM 81.0 °F 86.2 °F 73.9 °F 79% 29.93 in 10.0 mi West 5.8 mph - 0.00 in   Mostly Cloudy
2:53 PM 84.0 °F 89.6 °F 72.0 °F 67% 29.91 in 10.0 mi West 10.4 mph - N/A   Mostly Cloudy
3:53 PM 84.0 °F 87.0 °F 68.0 °F 58% 29.87 in 10.0 mi SSW 16.1 mph - N/A   Overcast
4:53 PM 78.1 °F - 70.0 °F 76% 29.90 in 7.0 mi West 23.0 mph 33.4 mph 0.00 in Rain Light Rain
5:53 PM 73.0 °F - 69.1 °F 87% 29.89 in 10.0 mi WSW 9.2 mph - 0.03 in Rain Light Rain
6:53 PM 73.9 °F - 71.1 °F 91% 29.86 in 10.0 mi South 5.8 mph - 0.01 in Rain Light Rain
7:53 PM 75.9 °F - 70.0 °F 82% 29.87 in 10.0 mi SSW 6.9 mph - 0.00 in   Mostly Cloudy
8:53 PM 75.0 °F - 71.1 °F 87% 29.89 in 10.0 mi SSW 5.8 mph - N/A   Mostly Cloudy
9:53 PM 75.0 °F - 72.0 °F 90% 29.90 in 10.0 mi SSW 5.8 mph - N/A   Scattered Clouds
10:53 PM 75.9 °F - 72.0 °F 87% 29.91 in 10.0 mi SSW 6.9 mph - N/A   Partly Cloudy
11:53 PM 75.0 °F - 72.0 °F 90% 29.91 in 10.0 mi SW 6.9 mph - N/A   Partly Cloudy